Location: Hemmenhofen
(47.6731°N, 8.9660°E)
Time: 10:29:09
(UTC+00:00)

Daily predictions for brighter satellites

Satellite Brightness Start Highest point End
(mag) Time Altitude Azimuth Time Altitude Azimuth Time Altitude Azimuth
Cosmos 2221 3.3 16:00:07 10° SSW 16:04:19 54° WNW 16:08:35 10° N
USA 308 3.7 16:00:39 10° WNW 16:04:37 36° N 16:08:34 10° ENE
SL-16 R/B 3.3 16:00:20 10° N 16:04:51 23° NE 16:09:20 10° E
MOS 1 Rocket 4.0 16:00:55 10° N 16:05:45 57° WNW 16:10:15 10° SSW
CZ-2C R/B 2.8 16:01:26 10° SSE 16:06:13 68° ENE 16:10:56 10° N
Envisat 4.4 16:02:10 10° S 16:06:59 43° W 16:11:51 10° NNW
Cosmos 2082 Rocket 2.6 16:02:52 10° S 16:08:16 47° ESE 16:13:41 10° NE
Sich 1 3.2 16:04:57 10° N 16:09:08 48° ENE 16:13:20 10° SSE
Cosmos 1500 Rocket 3.7 16:04:47 10° NNW 16:09:13 81° W 16:13:37 10° S
Cosmos 540 Rocket 3.5 16:04:12 10° S 16:09:15 68° ESE 16:14:21 10° NNE
ARGOS 4.4 16:07:11 10° E 16:10:48 19° ENE 16:14:26 10° NNE
FengYun 1-2 T 4.3 16:08:33 10° SSE 16:14:00 61° ENE 16:19:27 10° N
COSMOS 2455 3.0 16:08:50 10° SSW 16:14:47 67° ESE 16:20:47 10° NE
SMAP 3.3 16:12:16 10° SE 16:16:44 48° ENE 16:21:13 10° N
NOAA 6 4.2 16:13:16 10° SE 16:18:13 51° ENE 16:23:12 10° N
Cosmos 1933 3.3 16:17:32 10° S 16:21:34 82° E 16:25:37 10° N
Cosmos 1833 Rocket 3.0 16:15:58 10° SW 16:21:34 70° WNW 16:27:14 10° NNE
Cosmos 1805 Rocket 3.5 16:17:20 10° N 16:21:42 82° E 16:26:03 10° S
Cosmos 2278 3.7 16:16:34 10° NNW 16:22:15 61° ENE 16:27:52 10° SE
Cosmos 2333 Rocket 4.0 16:21:15 10° N 16:23:41 13° NNE 16:26:02 10° NE
Cosmos 1602 3.8 16:20:43 10° N 16:24:36 88° WSW 16:28:29 10° S
CZ-4B DEB 4.4 16:22:07 10° SE 16:27:24 49° ENE 16:32:40 10° N
USA 305 3.4 16:25:06 10° WNW 16:29:10 41° NNE 16:32:51 12° E
CZ-2C R/B 3.8 16:26:25 10° NE 16:30:18 21° E 16:34:12 10° SE
SL-24 R/B - RUBIN 2 4.2 16:27:09 10° NW 16:31:38 61° WSW 16:35:52 10° SSE
Cosmos 2219 Rocket 4.0 16:29:55 10° N 16:31:45 11° NNE 16:33:20 10° NE
CZ-4B R/B 3.0 16:28:51 10° S 16:32:46 74° WSW 16:36:33 10° NNW
Cosmos 1500 3.0 16:31:07 10° N 16:34:52 79° E 16:38:35 10° SSE
Meteor 1-14 Rocket 4.4 16:29:19 10° N 16:35:07 58° ENE 16:40:58 10° SSE
Cosmos 44 Rocket 3.3 16:31:31 10° NNW 16:36:24 58° NE 16:41:06 10° SE
COSMOS 2406 3.6 16:35:31 10° SW 16:41:13 65° WNW 16:46:56 10° NNE
Cosmos 1814 Rocket 4.0 16:36:59 10° S 16:42:07 62° ESE 16:47:13 10° NNE
Cosmos 921 Rocket 3.9 16:39:50 10° SSE 16:43:25 28° E 16:45:57 16° NE
Cosmos 1570 Rocket 4.0 16:43:50 10° S 16:48:58 61° ESE 16:54:09 10° NNE
MOS 1-B Rocket 4.4 16:45:58 10° NNE 16:51:50 48° E 16:58:33 10° S
CZ-4B R/B 3.4 16:48:25 10° SE 16:53:30 44° ENE 16:58:31 10° N
Cosmos 2298 Rocket 4.2 16:49:57 10° NNW 16:55:09 51° ENE 17:00:19 10° SE
CZ-2D R/B 3.2 16:51:59 10° SSE 16:55:45 60° ENE 16:59:31 10° N
USA 267 3.3 16:50:26 15° ENE 16:55:59 75° SE 17:02:31 10° SW
MOS 1-B 4.3 16:52:38 10° SSE 16:58:19 65° ENE 17:04:04 10° N
Cosmos 1939 Rocket 3.5 16:54:25 10° S 16:58:27 60° W 17:02:28 10° NNW
ATLAS CENTAUR R/B 3.1 16:49:22 10° WSW 16:58:36 61° NW 17:01:31 19° NE
Cosmos 1151 Rocket 2.9 16:57:06 10° S 17:01:26 78° E 17:05:49 10° NNE
USA 306 3.1 16:57:25 10° WNW 17:01:36 52° NNE 17:03:51 24° E
COSMO-SKYMED 1 3.2 16:59:10 18° NE 17:01:43 33° E 17:05:40 10° SSE
Cosmos 1633 Rocket 2.9 16:57:26 10° N 17:01:51 78° E 17:06:14 10° SSE
Cosmos 1782 3.7 16:59:42 10° SSW 17:03:35 51° WNW 17:07:29 10° N
Cosmos 1666 2.6 16:59:51 10° N 17:03:36 87° WSW 17:07:18 10° S
APEX 3.7 17:00:34 10° S 17:03:51 30° ESE 17:04:23 28° E
Meteor 2-6 Rocket 4.2 16:58:53 10° S 17:04:28 59° E 17:09:56 10° NNE
Cosmos 2360 Rocket 3.0 17:01:03 10° NNW 17:06:00 29° NE 17:08:17 22° E
ISS -1.0 17:04:17 10° W 17:06:51 20° SW 17:09:25 10° S
PAYLOAD B 4.2 17:02:46 10° SSE 17:08:23 82° ENE 17:14:00 10° NNW
Cosmos 1900 4.2 17:03:42 10° SSW 17:08:34 80° ESE 17:11:52 21° NE
YAOGAN 1 4.3 17:11:21 17° NNE 17:11:21 17° NNE 17:12:46 10° NNE
Cosmos 1818 3.7 17:06:27 10° NW 17:11:57 81° SW 17:17:24 10° SSE
CZ-2C R/B 3.7 17:14:28 10° SSW 17:16:45 14° S 17:18:59 10° SE
Cosmos 2279 Rocket 4.0 17:11:17 10° S 17:17:29 88° W 17:23:44 10° N
ATLAS 5 CENTAUR R/B 2.1 17:11:48 10° NW 17:18:43 54° NNE 17:19:39 39° E
Meteor 2-15 4.4 17:13:50 10° S 17:19:50 63° E 17:25:51 10° NNE
Cosmos 2266 Rocket 4.0 17:14:36 10° N 17:20:57 62° ENE 17:27:18 10° SSE
ERBS 4.2 17:18:55 10° NW 17:20:46 17° N 17:20:46 17° N
USA 307 2.9 17:17:59 10° WNW 17:22:13 60° NNE 17:23:33 39° E
CZ-4C R/B 3.6 17:15:49 10° NW 17:22:59 59° WSW 17:31:16 10° SSE
SL-08 RB Rocket 3.9 17:20:37 10° SE 17:24:59 45° ENE 17:29:22 10° N
Lacrosse 5 rocket 1.8 17:21:24 10° WNW 17:25:16 57° SW 17:28:57 12° SE
Cosmos 2208 Rocket 4.1 17:22:53 10° SSW 17:28:18 80° WNW 17:32:51 15° NNE
Cosmos 1933 Rocket 3.5 17:24:40 10° N 17:28:57 55° ENE 17:33:12 10° SSE
ATLAS 2AS CENTAUR R/B 4.0 17:22:57 10° NW 17:28:58 25° NNE 17:31:18 21° NE
Cosmos 2322 Rocket 2.2 17:23:19 10° NNW 17:29:00 61° ENE 17:34:38 10° SE
COSMOS 2428 4.2 17:25:39 10° N 17:28:44 18° NNE 17:28:44 18° NNE
USA 234 3.3 17:23:33 10° SE 17:30:07 80° SW 17:36:41 10° NW
Cosmos 2150 Rocket 3.9 17:25:33 10° NNW 17:30:46 89° ENE 17:36:02 10° SSE
Cosmos 1328 Rocket 3.7 17:27:05 10° SSW 17:31:31 74° W 17:35:58 10° N
Cosmos 1980 Rocket 4.1 17:26:56 10° NW 17:31:51 31° WSW 17:36:42 10° SSW
Cosmos 1470 Rocket 3.6 17:30:32 10° N 17:35:01 82° W 17:39:30 10° S
Cosmos 1544 2.9 17:31:30 10° N 17:35:08 83° E 17:38:45 10° S
Cosmos 1125 Rocket 3.5 17:31:43 10° NNW 17:37:00 88° WSW 17:42:17 10° SSE
Cosmos 1867 3.9 17:32:15 10° S 17:37:24 45° ESE 17:38:28 40° E
Cosmos 1812 4.3 17:33:54 10° SW 17:37:28 35° WNW 17:41:02 10° N
NOSS 3-3 (A) 4.4 17:32:37 10° S 17:37:42 35° ESE 17:38:22 34° E
NOSS 3-3 (C) 4.4 17:32:44 10° S 17:37:48 35° ESE 17:38:27 34° ESE
X-37B 2.2 17:35:58 10° SW 17:37:49 24° S 17:37:49 24° S
H-2A R/B 2.5 17:33:34 10° S 17:38:37 61° W 17:43:35 10° NNW
DEBRIS 4.2 17:36:50 10° S 17:38:35 24° SSE 17:38:35 24° SSE
Okean O Rocket 1.5 17:35:54 10° SSE 17:40:22 86° ENE 17:44:52 10° NNW
Meteor 1-10 Rocket 4.1 17:35:50 10° S 17:41:35 86° E 17:47:11 10° NNE
Meteor 1-11 Rocket 3.6 17:36:31 10° N 17:42:12 81° ENE 17:47:59 10° SSE
GEOS 3 Rocket 4.1 17:41:56 38° NE 17:42:16 38° NE 17:47:02 10° NNW
USA 32 4.0 17:38:28 10° S 17:43:35 59° E 17:46:22 27° NNE
USA 308 2.7 17:40:40 10° WNW 17:44:57 77° NNE 17:45:21 69° E
SL-16 R/B 2.3 17:43:54 10° NNW 17:49:35 77° WSW 17:55:14 10° SSE
SKYMED 2 3.6 17:47:47 30° N 17:49:55 81° WNW 17:54:16 10° SSW
ARGOS 3.2 17:45:03 10° SSE 17:50:27 80° WSW 17:55:53 10° NNW
Cosmos 2237 Rocket 4.3 17:48:33 10° N 17:49:04 11° NNE 17:49:04 11° NNE
Cosmos 2082 Rocket 3.6 17:47:25 10° WSW 17:52:32 34° NW 17:56:57 13° N
deb Chang Zheng 4 4.1 17:51:44 10° S 17:55:58 57° WSW 18:00:15 10° NNW
Cosmos 1241 Rocket 4.5 17:54:40 10° SSW 18:00:56 60° ESE 18:01:58 53° E
COSMOS 2455 4.3 17:55:53 10° WSW 18:01:11 31° NW 18:04:54 17° NNE
Feng Yun 1-1 Rocket 4.3 17:59:23 10° SSE 18:05:19 89° ENE 18:11:10 10° NNW
USA 305 3.2 18:05:01 10° WNW 18:08:52 66° WSW 18:08:52 66° WSW
Cosmos 2333 Rocket 3.0 18:04:02 10° NNW 18:08:05 37° NNE 18:08:05 37° NNE
Cosmos 1356 Rocket 4.3 18:05:36 10° NNW 18:09:41 50° W 18:13:48 10° S
CZ-2C R/B 3.1 18:06:50 15° N 18:11:00 57° WNW 18:16:03 10° SSW
Cosmos 2219 Rocket 3.4 18:12:01 10° NNW 18:15:05 28° N 18:15:05 28° N
Aureole 3 Rocket 3.7 18:13:14 10° SSW 18:17:51 78° W 18:24:30 10° N
Nadezhda 2 Rocket 4.4 18:18:03 10° N 18:24:24 73° ENE 18:24:24 73° ENE
COSMO-SKYMED 1 4.4 18:36:23 23° NW 18:37:47 28° WNW 18:41:29 10° SW
USA 267 3.7 18:37:47 47° N 18:38:50 52° NNW 18:45:07 10° W
Meteor 1-27 Rocket 4.5 18:39:27 10° SSW 18:44:46 48° WNW 18:46:30 36° NNW
Cosmos 2360 Rocket 2.7 18:44:48 10° NW 18:50:08 56° WSW 18:50:08 56° WSW
Cosmos 2322 Rocket 4.2 19:08:07 10° NW 19:12:36 24° WSW 19:17:04 10° SSW
NOSS 3-4 (A) 4.4 19:11:30 10° NW 19:16:19 50° NW 19:16:19 50° NW
NOSS 3-4 (C) 4.4 19:11:36 10° NW 19:16:24 50° NW 19:16:24 50° NW
ATLAS 2AS CENTAUR R/B 4.0 19:14:35 10° NW 19:18:44 32° NNW 19:18:44 32° NNW
